{"data":{"norad_id":63637,"intl_designator":"2025-083D","name":"STARLINK-33832","alt_names":[],"object_type":"PAYLOAD","status":"ACTIVE","operator":null,"country":"US","launch_date":"2025-04-25","launch_site_code":"AFETR","launch_vehicle":null,"mission":null,"orbit_class":"UNKNOWN","rcs_meters":null,"size_class":null,"mass_kg":null,"dimensions":null,"purposes":["comms"],"wikipedia_slug":null,"has_3d_model":false,"image_url":null,"decayed_at":null,"tle_current":{"epoch":"2026-09-20T07:12:17.947872Z","epoch_age_seconds":170116,"freshness":"FRESH","line1":"1 63637U 25083D   26263.30020773  .00014295  00000+0  52783-3 0  9992","line2":"2 63637  43.0031 345.8423 0001181 259.2540 100.8179 15.27590769 79839","mean_motion":15.27590769,"eccentricity":0.0001181,"inclination_deg":43.0031,"raan_deg":345.8423,"arg_perigee_deg":259.254,"mean_anomaly_deg":100.8179,"bstar":0.00052783,"rev_number":7983,"period_min":94.266084164849,"perigee_km":482.20654769928,"apogee_km":483.82715223864,"semimajor_km":6861.153849969,"source":"CELESTRAK","updated_at":"2026-09-21T09:00:35.051104Z"}}}